Flag for Russia Weather past 2 weeks in Yakutsk, Russia

Now
61 °F

Partly sunny.


Feels Like: 61 °F
Forecast: 42 / 58 °F
Wind: 8 mph from Northeast

Location: Jakutsk

Current Time: May 30, 2015 at 2:12:24 PM

Latest Report: May 30, 2015 at 1:30 PM


Visibility: N/A

Pressure: 29.53 "Hg

Humidity: 42%

Dew point: 37 °F

Location of YakutskLocation

Historic Weather in Yakutsk — Graph

°F

Yakutsk temperature yesterday

Maximum temperature yesterday: 61 °F (at 12:30 PM)
Minimum temperature yesterday: 37 °F (at 3:00 AM)
Average temperature yesterday: 51 °F

Past Weeks' High & Low Weather Summary

 TemperatureHumidityPressure
High68 °F (May 26, 12:00 PM)100% (May 21, 1:30 AM)29.89 "Hg (May 21, 1:30 AM)
Low30 °F (May 22, 2:30 AM)19% (May 18, 7:30 PM)29.39 "Hg (May 26, 1:00 PM)
Average47 °F52%29.60 "Hg
* Reported May 15 12:00 Noon — May 30 12:30 PM, Yakutsk, Weather by CustomWeather, © 2015

Note: Actual official high and low records may vary slightly from our data, if they occured in-between our weather recording intervals... More about our weather records

Advertising

Yakutsk weather history for previous 24 hours

 ConditionsComfort  
Time TempWeatherWind HumidityBarometerVisibility
12:30 PM
Sat, May 30
61 °FScattered clouds.13 mph45%29.53 "HgN/A
12:00 PM61 °FScattered clouds.6 mph42%29.53 "HgN/A
11:30 AM59 °FScattered clouds.13 mph48%29.53 "HgN/A
11:00 AM59 °FScattered clouds.10 mph48%29.56 "HgN/A
10:30 AM57 °FScattered clouds.6 mph55%29.56 "HgN/A
10:00 AM59 °FPassing clouds.3 mph55%29.56 "HgN/A
9:30 AM57 °FPassing clouds.3 mph55%29.56 "HgN/A
9:00 AM55 °FPassing clouds.6 mph63%29.59 "HgN/A
8:30 AM55 °FPassing clouds.1 mph59%29.59 "HgN/A
8:00 AM55 °FSunny.3 mph59%29.59 "Hg10 mi
7:30 AM54 °FSunny.6 mph72%29.59 "Hg10 mi
7:00 AM52 °FSunny.6 mph72%29.59 "Hg10 mi
6:30 AM52 °FSunny.3 mph72%29.59 "Hg10 mi
5:30 AM48 °FSunny.6 mph82%29.59 "Hg10 mi
5:00 AM48 °FPassing clouds.1 mph82%29.59 "HgN/A
4:30 AM46 °FPassing clouds.3 mph87%29.59 "HgN/A
4:00 AM45 °FPassing clouds.No wind93%29.59 "HgN/A
3:30 AM46 °FScattered clouds.No wind87%29.59 "HgN/A
3:00 AM46 °FScattered clouds.6 mph87%29.59 "HgN/A
2:30 AM46 °FSprinkles. Passing clouds.3 mph93%29.59 "HgN/A
2:00 AM46 °FSprinkles. Passing clouds.3 mph87%29.62 "HgN/A
1:30 AM48 °FSprinkles. Passing clouds.3 mph87%29.62 "HgN/A
1:00 AM48 °FSprinkles. Passing clouds.No wind87%29.62 "HgN/A
12:30 AM48 °FSprinkles. Passing clouds.No wind87%29.62 "HgN/A
12:00 AM48 °FSprinkles. Passing clouds.8 mph82%29.62 "HgN/A
11:30 PM
Fri, May 29
48 °FPassing clouds.6 mph76%29.62 "HgN/A
11:00 PM48 °FPassing clouds.6 mph76%29.62 "HgN/A
10:30 PM50 °FPassing clouds.6 mph71%29.62 "HgN/A
10:00 PM50 °FPassing clouds.3 mph76%29.62 "HgN/A
9:30 PM52 °FScattered clouds.3 mph72%29.62 "HgN/A
9:00 PM54 °FSprinkles. Scattered clouds.1 mph63%29.62 "HgN/A
8:30 PM54 °FScattered clouds.6 mph58%29.62 "HgN/A
8:00 PM55 °FScattered clouds.3 mph51%29.62 "HgN/A
7:30 PM55 °FScattered clouds.6 mph55%29.62 "HgN/A
7:00 PM55 °FScattered clouds.6 mph55%29.62 "HgN/A
6:30 PM57 °FScattered clouds.1 mph51%29.62 "HgN/A
6:00 PM57 °FScattered clouds.No wind51%29.62 "HgN/A
5:30 PM54 °FScattered clouds.1 mph63%29.62 "HgN/A
5:00 PM54 °FSprinkles. Scattered clouds.13 mph58%29.62 "HgN/A
4:30 PM55 °FScattered clouds.13 mph55%29.62 "HgN/A
4:00 PM61 °FScattered clouds.3 mph36%29.59 "HgN/A
3:30 PM57 °FScattered clouds.3 mph41%29.59 "HgN/A
3:00 PM61 °FScattered clouds.6 mph39%29.62 "HgN/A
2:30 PM59 °FScattered clouds.8 mph48%29.62 "HgN/A
2:00 PM59 °FScattered clouds.10 mph45%29.62 "HgN/A
Weather by CustomWeather, © 2015

See weather overviewHow to use our weather pages